STARLINK-5914, 55941

Orbit data source: Space-Track

STARLINK-5914, 55941 is a payload satellite owned by SpaceX/Seattle (US) in LEO that was launched on Fri, 17 Mar 2023 UTC via an FALCON 9 launch vehicle from the Air Force Western Test Range (AFWTR). Payload-class satellites include a variety of spacecraft equipped with specific instruments for various scientific and technological missions. These include communications satellites like Starlink; space stations such as the ISS; scientific satellites like the Hubble; Earth observation satellites from companies like Planet Labs, Umbra, and HawkEye 360; GPS; miniature CubeSats for education and research; and military/defense satellites.

Loading next visibility...
Identifier
55941, 2023-037AD
Orbit
LEO
Last TLE update
21 hours ago
Origin
Manufacturer
SpaceX/Seattle
Mission
Operational Commercial Communications
Bus & Motor
STARLINK, Unknown motor
Mass
305 kg wet, ~290 kg dry
Launch date (UTC)
2023-03-17 (2 years ago)
Launch vehicle
FALCON 9
Launch site
Air Force Western Test Range (AFWTR)
Object type
Payload
Rocket body
Debris
Shape & HBR
Box + 1 Pan, 9 m
Radar Cross Section
11.087 m², Large (>1 m²)

Expand to show TLE details & history

TLE from 21 hours ago
0 STARLINK-5914
1 55941U 23037AD  25128.71050021  .00000238  00000-0  27729-4 0  9997
2 55941  69.9989 333.5637 0002999 269.7115  90.3701 14.98329550118293
Epoch: 2025-05-08T17:03Z
Definitive object data (Epoch: 2025-05-08T17:03:07.218Z)
Latitude
0.00005°
Longitude
-148.99344°
Altitude
574.495 km
Speed
7.574 km/s
True Right ascension
22h 14m 15s
True Declination
0° 00' 00"
Sunlit
Object was in daylight at TLE epoch
Visualization TLE readout
Latitude
59.3923°
Longitude
-8.96328°
Altitude
583.406 km
Speed
7.574 km/s
Apparent Right ascension
09h 18m 53s
Apparent Declination
13° 37' 12"
Sunlit
Object is in daylight
Visualization observer readout
Local Sidereal Time
22:33:23
Azimuth
21.914° NNE
Elevation
-33.73°
Doppler factor
1
Orbital elements
Apogee altitude
572.089 km
Perigee altitude
567.922 km
Semi-major axis
6,948.143 km
Eccentricity
0.0002999
Inclination
69.9989°
RAAN
333.5637°
Arg. of periapsis
269.7115°
True anomaly
90.40447°
Mean anomaly
90.3701°
Eccentric anomaly
90.38728°
Mean motion
3.74749 °/min
BSTAR
0.000027729
Orbital period
96.06 mins
Loading maneuver chart data...
Loading SW <> Apogee altitude chart data...
Loading historical data...
Loading historical data...
Loading historical data...
Loading historical data...
Loading historical data...
Loading historical data...
Loading historical data...

STARLINK-5914 Visibility forecast

Observer location: undefined°, undefined°

Span
Click to sort rows by Start time (UTC) header in descending order
Start Az.
Max El. time (UTC)
Max El. Az.
Max El.
End time (UTC)
End Az.
6 mins2025-05-09 15:38:14.615Z237.437° WSW2025-05-09 15:41:14.615Z297.594° NW30.537°2025-05-09 15:44:14.615Z1.237° NNE
6 mins2025-05-10 00:03:14.615Z4.592° NNE2025-05-10 00:05:14.615Z52.393° ENE31.837°2025-05-10 00:09:14.615Z129.635° SE
5 mins2025-05-10 14:03:14.615Z152.077° SSE2025-05-10 14:05:14.615Z113.773° SE24.08°2025-05-10 14:08:14.615Z55.917° ENE
|